QPF
0.00 0.00 0.00 0.00 0.00 0.00 0.00 0.00 0.00 0.00 0.00 0.00 0.00 0.00 0.00 0.00 0.00 0.00 0.00 0.00 0.00 0.00 0.00 0.00 0.00 0.00 0.00 0.00 0.00 0.00 0.00 0.00 0.00 0.00 0.00 0.00 0.00 0.00 0.00 0.00 0.00 0.00 0.00 0.00 0.00
0.00 0.00 0.00 0.00 0.00 0.00 0.00 0.00 0.00 0.00 0.00 0.00 0.00 0.00 0.00 0.00 0.00 0.00 0.00 0.00 0.00 0.00 0.00 0.00 0.00 0.00 0.00 0.00 0.00 0.00 0.00 0.00 0.00 0.00 0.00 0.00 0.00 0.00 0.00 0.00 0.00 0.00 0.00 0.00 0.00
0.00 0.00 0.00 0.00 0.00 0.00 0.00 0.00 0.00 0.00 0.00 0.00 0.00 0.00 0.00 0.00 0.00 0.00 0.00 0.00 0.00 0.00 0.00 0.00 0.00 0.00 0.00 0.00 0.00 0.00 0.00 0.00 0.00 0.00 0.00 0.00 0.00 0.00 0.00 0.00 0.00 0.00 0.00 0.00 0.00
0.00 0.00 0.00 0.00 0.00 0.00 0.00 0.00 0.00 0.00 0.00 0.00 0.00 0.00 0.00 0.00 0.00 0.00 0.00 0.00 0.00 0.00 0.00 0.00 0.00 0.00 0.00 0.00 0.00 0.00 0.00 0.00 0.00 0.00 0.00 0.00 0.00 0.00 0.00 0.00 0.00 0.00 0.00 0.00 0.00
0.00 0.00 0.00 0.00 0.00 0.00 0.00 0.00 0.00 0.00 0.00 0.00 0.00 0.00 0.00 0.00 0.00 0.00 0.00 0.00 0.00 0.00 0.00 0.00 0.00 0.00 0.00 0.00 0.00 0.00 0.00 0.00 0.00 0.00 0.00 0.00 0.00 0.00 0.00 0.00 0.00 0.00 0.00 0.00 0.00
0.00 0.00 0.00 0.00 0.00 0.00 0.00 0.00 0.00 0.00 0.00 0.00 0.00 0.00 0.00 0.00 0.00 0.00 0.00 0.00 0.00 0.00 0.00 0.00 0.00 0.00 0.00 0.00 0.00 0.00 0.00 0.00 0.00 0.00 0.00 0.00 0.00 0.00 0.00 0.00 0.00 0.00 0.00 0.00 0.00
0.00 0.00 0.00 0.00 0.00 0.00 0.00 0.00 0.00 0.00 0.00 0.00 0.00 0.00 0.00 0.00 0.00 0.00 0.00 0.00 0.00 0.00 0.00 0.00 0.00 0.00 0.00 0.00 0.00 0.00 0.00 0.00 0.00 0.00 0.00 0.00 0.00 0.00 0.00 0.00 0.00 0.00 0.00 0.00 0.00
0.00 0.00 0.00 0.00 0.00 0.00 0.00 0.00 0.00 0.00 0.00 0.00 0.00 0.00 0.00 0.00 0.00 0.00 0.00 0.00 0.00 0.00 0.00 0.00 0.00 0.00 0.00 0.00 0.00 0.00 0.00 0.00 0.00 0.00 0.00 0.00 0.00 0.00 0.00 0.00 0.00 0.00 0.00 0.00 0.00
0.00 0.00 0.00 0.00 0.00 0.00 0.00 0.00 0.00 0.00 0.00 0.00 0.00 0.00 0.00 0.00 0.00 0.00 0.00 0.00 0.00 0.00 0.00 0.00 0.00 0.00 0.00 0.00 0.00 0.00 0.00 0.00 0.00 0.00 0.00 0.00 0.00 0.00 0.00 0.00 0.00 0.00 0.00 0.00 0.00
0.00 0.00 0.00 0.00 0.00 0.00 0.00 0.00 0.00 0.00 0.00 0.00 0.00 0.00 0.00 0.00 0.00 0.00 0.00 0.00 0.00 0.00 0.00 0.00 0.00 0.00 0.00 0.00 0.00 0.00 0.00 0.00 0.00 0.00 0.00 0.00 0.00 0.00 0.00 0.00 0.00 0.00 0.00 0.00 0.00
0.00 0.00 0.00 0.00 0.00 0.00 0.00 0.00 0.00 0.00 0.00 0.00 0.00 0.00 0.00 0.00 0.00 0.00 0.00 0.00 0.00 0.00 0.00 0.00 0.00 0.00 0.00 0.00 0.00 0.00 0.00 0.00 0.00 0.00 0.00 0.00 0.00 0.00 0.00 0.00 0.00 0.00 0.00 0.00 0.00
0.00 0.00 0.00 0.00 0.00 0.00 0.00 0.00 0.00 0.00 0.00 0.00 0.00 0.00 0.00 0.00 0.00 0.00 0.00 0.00 0.00 0.00 0.00 0.00 0.00 0.00 0.00 0.00 0.00 0.00 0.00 0.00 0.00 0.00 0.00 0.00 0.00 0.00 0.00 0.00 0.00 0.00 0.00 0.00 0.00
0.00 0.00 0.00 0.00 0.00 0.00 0.00 0.00 0.00 0.00 0.00 0.00 0.00 0.00 0.00 0.00 0.00 0.00 0.00 0.00 0.00 0.00 0.00 0.00 0.00 0.00 0.00 0.00 0.00 0.00 0.00 0.00 0.00 0.00 0.00 0.00 0.00 0.00 0.00 0.00 0.00 0.00 0.00 0.00 0.00
0.00 0.00 0.00 0.00 0.00 0.00 0.00 0.00 0.00 0.00 0.00 0.00 0.00 0.00 0.00 0.00 0.00 0.00 0.00 0.00 0.00 0.00 0.00 0.00 0.00 0.00 0.00 0.00 0.00 0.00 0.00 0.00 0.00 0.00 0.00 0.00 0.00 0.00 0.00 0.00 0.00 0.00 0.00 0.00 0.00
0.00 0.00 0.00 0.00 0.00 0.00 0.00 0.00 0.00 0.00 0.00 0.00 0.00 0.00 0.00 0.00 0.00 0.00 0.00 0.00 0.00 0.00 0.00 0.00 0.00 0.00 0.00 0.00 0.00 0.00 0.00 0.00 0.00 0.00 0.00 0.00 0.00 0.00 0.00 0.00 0.00 0.00 0.00 0.00 0.00
0.00 0.00 0.00 0.00 0.00 0.00 0.00 0.00 0.00 0.00 0.00 0.00 0.00 0.00 0.00 0.00 0.00 0.00 0.00 0.00 0.00 0.00 0.00 0.00 0.00 0.00 0.00 0.00 0.00 0.00 0.00 0.00 0.00 0.00 0.00 0.00 0.00 0.00 0.00 0.00 0.00 0.00 0.00 0.00 0.00
0.00 0.00 0.00 0.00 0.00 0.00 0.00 0.00 0.00 0.00 0.00 0.00 0.00 0.00 0.00 0.00 0.00 0.00 0.00 0.00 0.00 0.00 0.00 0.00 0.00 0.00 0.00 0.00 0.00 0.00 0.00 0.00 0.00 0.00 0.00 0.00 0.00 0.00 0.00 0.00 0.00 0.00 0.00 0.00 0.00
0.00 0.00 0.00 0.00 0.00 0.00 0.00 0.00 0.00 0.00 0.00 0.00 0.00 0.00 0.00 0.00 0.00 0.00 0.00 0.00 0.00 0.00 0.00 0.00 0.00 0.00 0.00 0.00 0.00 0.00 0.00 0.00 0.00 0.00 0.00 0.00 0.00 0.00 0.00 0.00 0.00 0.00 0.00 0.00 0.00
0.00 0.00 0.00 0.00 0.00 0.00 0.00 0.00 0.00 0.00 0.00 0.00 0.00 0.00 0.00 0.00 0.00 0.00 0.00 0.00 0.00 0.00 0.00 0.00 0.00 0.00 0.00 0.00 0.00 0.00 0.00 0.00 0.00 0.00 0.00 0.00 0.00 0.00 0.00 0.00 0.00 0.00 0.00 0.00 0.00
0.00 0.00 0.00 0.00 0.00 0.00 0.00 0.00 0.00 0.00 0.00 0.00 0.00 0.00 0.00 0.00 0.00 0.00 0.00 0.00 0.00 0.00 0.00 0.00 0.00 0.00 0.00 0.00 0.00 0.00 0.00 0.00 0.00 0.00 0.00 0.00 0.00 0.00 0.00 0.00 0.00 0.00 0.00 0.00 0.00
0.00 0.00 0.00 0.00 0.00 0.00 0.00 0.00 0.00 0.00 0.00 0.00 0.00 0.00 0.00 0.00 0.00 0.00 0.00 0.00 0.00 0.00 0.00 0.00 0.00 0.00 0.00 0.00 0.00 0.00 0.00 0.00 0.00 0.00 0.00 0.00 0.00 0.00 0.00 0.00 0.00 0.00 0.00 0.00 0.00
0.00 0.00 0.00 0.00 0.00 0.00 0.00 0.00 0.00 0.00 0.00 0.00 0.00 0.00 0.00 0.00 0.00 0.00 0.00 0.00 0.00 0.00 0.00 0.00 0.00 0.00 0.00 0.00 0.00 0.00 0.00 0.00 0.00 0.00 0.00 0.00 0.00 0.00 0.00 0.00 0.00 0.00 0.00 0.00 0.00
0.00 0.00 0.00 0.00 0.00 0.00 0.00 0.00 0.00 0.00 0.00 0.00 0.00 0.00 0.00 0.00 0.00 0.00 0.00 0.00 0.00 0.00 0.00 0.00 0.00 0.00 0.00 0.00 0.00 0.00 0.00 0.00 0.00 0.00 0.00 0.00 0.00 0.00 0.00 0.00 0.00 0.00 0.00 0.00 0.00
0.00 0.00 0.00 0.00 0.00 0.00 0.00 0.00 0.00 0.00 0.00 0.00 0.00 0.00 0.00 0.00 0.00 0.00 0.00 0.00 0.00 0.00 0.00 0.00 0.00 0.00 0.00 0.00 0.00 0.00 0.00 0.00 0.00 0.00 0.00 0.00 0.00 0.00 0.00 0.00 0.00 0.00 0.00 0.00 0.00
0.00 0.00 0.00 0.00 0.00 0.00 0.00 0.00 0.00 0.00 0.00 0.00 0.00 0.00 0.00 0.00 0.00 0.00 0.00 0.00 0.00 0.00 0.00 0.00 0.00 0.00 0.00 0.00 0.00 0.00 0.00 0.00 0.00 0.00 0.00 0.00 0.00 0.00 0.00 0.00 0.00 0.00 0.00 0.00 0.00
0.00 0.00 0.00 0.00 0.00 0.00 0.00 0.00 0.00 0.00 0.00 0.00 0.00 0.00 0.00 0.00 0.00 0.00 0.00 0.00 0.00 0.00 0.00 0.00 0.00 0.00 0.00 0.00 0.00 0.00 0.00 0.00 0.00 0.00 0.00 0.00 0.00 0.00 0.00 0.00 0.00 0.00 0.00 0.00 0.00
0.00 0.00 0.00 0.00 0.00 0.00 0.00 0.00 0.00 0.00 0.00 0.00 0.00 0.00 0.00 0.00 0.00 0.00 0.00 0.00 0.00 0.00 0.00 0.00 0.00 0.00 0.00 0.00 0.00 0.00 0.00 0.00 0.00 0.00 0.00 0.00 0.00 0.00 0.00 0.00 0.00 0.00 0.00 0.00 0.00
MSLP
1016.80 1016.47 1016.19 1016.00 1015.84 1015.70 1015.59 1015.44 1015.30 1015.24 1015.14 1014.94 1014.68 1014.37 1014.10 1013.82 1013.37 1013.24 1013.24 1013.56 1013.04 1012.12 1012.03 1011.84 1011.69 1011.72 1012.10 1013.05 1013.83 1014.80 1017.36 1019.94 1021.08 1022.04 1023.34 1023.80 1024.48 1025.25 1025.76 1025.86 1025.90 1026.20 1026.50 1026.48 1026.30
1016.83 1016.49 1016.27 1016.02 1015.80 1015.68 1015.54 1015.36 1015.27 1015.18 1015.06 1014.88 1014.65 1014.37 1014.13 1013.89 1013.70 1013.49 1013.09 1012.77 1012.18 1011.83 1011.82 1011.81 1011.92 1012.09 1013.27 1014.35 1015.36 1016.53 1018.98 1020.57 1021.42 1022.10 1023.33 1024.24 1024.80 1025.68 1026.38 1026.64 1026.89 1026.80 1026.68 1026.61 1026.47
1016.82 1016.56 1016.36 1016.04 1015.81 1015.68 1015.54 1015.41 1015.29 1015.12 1014.94 1014.72 1014.51 1014.30 1014.13 1013.92 1013.98 1013.78 1012.90 1012.50 1011.94 1011.54 1011.73 1011.83 1012.17 1012.88 1014.46 1015.57 1017.02 1018.28 1020.09 1021.38 1022.71 1022.95 1023.67 1024.78 1025.47 1026.11 1026.63 1027.35 1027.48 1027.63 1027.62 1027.41 1027.27
1016.85 1016.63 1016.38 1016.04 1015.88 1015.76 1015.60 1015.46 1015.26 1015.06 1014.78 1014.53 1014.28 1014.11 1014.01 1013.93 1014.62 1013.83 1013.25 1012.76 1012.07 1011.53 1011.74 1012.07 1012.60 1014.07 1015.80 1017.09 1018.22 1019.86 1021.45 1021.86 1023.14 1023.71 1024.30 1025.23 1026.02 1026.89 1027.22 1027.86 1027.93 1028.15 1028.11 1027.93 1027.81
1017.01 1016.71 1016.36 1016.04 1015.95 1015.82 1015.67 1015.47 1015.25 1015.04 1014.76 1014.47 1014.14 1013.91 1013.91 1014.64 1014.89 1013.94 1013.59 1013.01 1012.22 1011.90 1012.19 1012.63 1013.45 1014.89 1016.68 1017.92 1019.07 1020.69 1022.17 1022.94 1023.62 1024.28 1025.16 1025.81 1026.67 1027.23 1028.19 1028.37 1028.40 1028.28 1028.37 1028.54 1028.25
1017.14 1016.79 1016.34 1016.14 1016.03 1015.79 1015.61 1015.35 1015.16 1014.96 1014.71 1014.38 1014.16 1013.97 1014.19 1015.15 1014.56 1014.30 1013.99 1013.41 1013.11 1012.89 1013.10 1013.22 1014.05 1015.03 1017.11 1018.79 1019.79 1021.46 1022.67 1023.87 1024.58 1025.05 1025.78 1026.31 1027.39 1027.50 1028.66 1028.86 1028.74 1028.97 1029.10 1028.78 1028.49
1017.22 1016.86 1016.44 1016.27 1016.11 1015.79 1015.47 1015.21 1015.03 1014.85 1014.55 1014.34 1014.18 1014.02 1014.81 1015.16 1014.59 1014.39 1014.12 1013.88 1013.78 1013.50 1013.83 1014.15 1014.25 1015.04 1017.46 1019.65 1021.08 1021.99 1023.32 1024.28 1025.05 1025.22 1026.14 1025.99 1027.91 1028.60 1029.14 1029.02 1029.66 1029.77 1029.78 1029.46 1028.99
1017.26 1016.95 1016.54 1016.30 1016.20 1015.83 1015.44 1014.98 1014.68 1014.47 1014.24 1014.20 1014.17 1014.34 1015.06 1014.71 1014.63 1014.53 1014.26 1014.16 1014.11 1013.95 1014.34 1014.82 1014.81 1016.24 1018.50 1020.15 1021.22 1022.14 1023.14 1024.27 1024.70 1025.14 1025.79 1026.38 1028.62 1029.25 1029.51 1029.58 1030.39 1030.58 1030.29 1029.95 1029.20
1017.31 1016.96 1016.59 1016.34 1016.15 1015.80 1015.39 1014.80 1014.48 1014.34 1014.02 1014.03 1014.30 1014.65 1015.43 1014.81 1015.04 1015.18 1015.25 1015.28 1015.03 1014.95 1015.21 1015.29 1016.09 1018.98 1020.09 1020.99 1021.94 1022.60 1023.34 1023.85 1024.72 1025.14 1025.92 1026.88 1028.93 1029.72 1029.86 1030.26 1030.91 1031.00 1030.66 1029.88 1029.15
1017.42 1016.95 1016.54 1016.29 1016.06 1015.70 1015.20 1014.70 1014.39 1014.15 1014.34 1014.27 1014.92 1015.54 1015.91 1016.61 1016.18 1015.82 1015.57 1015.51 1015.64 1015.67 1016.22 1017.30 1019.19 1021.09 1022.32 1022.46 1023.00 1023.03 1023.30 1023.88 1024.69 1025.76 1026.50 1027.77 1029.21 1029.99 1030.35 1030.68 1031.12 1031.09 1030.75 1030.07 1029.00
1017.51 1016.99 1016.50 1016.14 1015.90 1015.61 1015.02 1014.88 1015.32 1015.76 1016.37 1016.85 1017.02 1017.03 1016.91 1016.69 1016.38 1016.36 1016.20 1016.05 1016.52 1017.56 1019.10 1020.17 1021.48 1023.31 1023.62 1023.41 1023.06 1023.09 1023.45 1024.12 1025.04 1026.30 1027.42 1028.59 1029.62 1030.25 1030.52 1030.82 1031.08 1031.02 1030.86 1030.13 1029.31
1017.48 1016.99 1016.49 1016.02 1015.79 1015.64 1015.54 1016.21 1016.53 1016.67 1017.44 1017.38 1017.25 1017.16 1017.05 1017.08 1017.09 1017.02 1016.55 1017.55 1018.60 1020.05 1020.54 1021.54 1023.04 1023.71 1023.58 1023.54 1023.12 1023.31 1023.88 1024.74 1025.79 1026.68 1027.67 1029.34 1030.12 1030.48 1030.73 1031.26 1031.55 1031.49 1031.07 1030.46 1029.41
1017.46 1017.04 1016.48 1015.97 1015.76 1015.90 1016.32 1016.75 1016.67 1016.66 1017.26 1017.66 1017.49 1017.42 1017.52 1017.57 1018.74 1018.85 1018.58 1019.35 1020.55 1021.40 1022.17 1022.99 1024.44 1023.85 1023.72 1023.96 1023.77 1023.85 1024.21 1025.18 1026.10 1027.19 1028.27 1029.42 1030.54 1030.87 1031.24 1031.54 1031.58 1031.53 1031.30 1030.37 1029.37
1017.47 1017.17 1016.51 1015.82 1016.23 1016.66 1016.86 1016.85 1016.75 1016.71 1017.66 1018.27 1017.64 1017.49 1017.74 1018.03 1019.22 1019.54 1019.63 1020.01 1021.28 1022.65 1023.18 1024.29 1024.54 1024.38 1024.30 1024.49 1024.77 1024.51 1024.48 1025.12 1025.94 1027.12 1028.57 1029.47 1030.78 1031.63 1032.08 1032.02 1031.87 1031.65 1030.92 1030.29 1029.31
1017.44 1017.22 1016.60 1015.78 1016.51 1016.91 1017.15 1016.87 1016.73 1016.94 1018.17 1018.53 1017.79 1017.32 1018.12 1018.90 1019.89 1020.14 1020.62 1020.63 1022.36 1023.36 1023.66 1025.22 1025.06 1024.88 1025.00 1025.21 1025.26 1024.99 1024.90 1025.13 1025.89 1027.19 1028.46 1029.86 1031.12 1032.60 1032.64 1032.69 1032.26 1031.93 1031.26 1030.32 1029.59
1017.39 1017.23 1016.79 1016.38 1016.82 1017.13 1016.94 1016.80 1017.11 1017.89 1018.43 1018.54 1018.28 1018.34 1018.94 1019.90 1020.81 1021.32 1021.83 1021.97 1023.16 1023.88 1024.56 1025.38 1025.25 1025.65 1025.91 1025.48 1025.53 1025.25 1025.34 1025.71 1026.53 1027.68 1028.94 1029.86 1031.26 1033.30 1033.32 1033.57 1032.86 1032.02 1031.48 1030.65 1029.50
1017.29 1017.10 1016.75 1016.57 1017.00 1016.98 1017.08 1017.47 1018.34 1018.78 1019.18 1019.16 1019.06 1019.31 1020.09 1021.09 1022.02 1022.87 1024.08 1024.82 1025.61 1025.69 1026.05 1026.04 1026.25 1026.26 1026.38 1026.28 1025.92 1026.26 1026.50 1027.34 1028.24 1028.94 1029.65 1030.50 1031.65 1033.22 1033.72 1033.66 1033.36 1032.52 1031.56 1030.72 1029.75
1017.17 1017.00 1016.88 1016.75 1016.89 1016.91 1017.46 1018.30 1019.00 1019.42 1019.40 1019.35 1019.55 1020.03 1020.88 1021.73 1023.07 1024.10 1025.18 1026.62 1027.00 1027.00 1027.22 1027.23 1026.90 1027.34 1027.44 1028.04 1028.29 1028.45 1028.92 1030.00 1030.74 1031.34 1031.21 1031.21 1032.22 1033.25 1033.66 1033.68 1033.30 1032.55 1031.82 1030.82 1029.91
1017.04 1017.26 1017.33 1017.08 1016.97 1017.16 1018.06 1019.48 1019.43 1019.76 1019.59 1019.74 1020.05 1020.61 1021.44 1022.12 1023.10 1024.62 1026.18 1027.37 1027.73 1027.62 1027.78 1027.84 1027.99 1027.88 1028.18 1028.50 1028.90 1029.31 1030.39 1031.43 1032.20 1032.92 1033.57 1032.65 1033.38 1033.58 1033.49 1033.38 1033.33 1032.56 1031.89 1030.97 1030.05
1017.61 1017.85 1017.72 1017.13 1017.10 1017.76 1019.05 1020.18 1020.53 1020.36 1020.15 1020.03 1020.43 1021.01 1021.79 1022.65 1023.69 1024.97 1026.54 1027.72 1028.03 1028.10 1028.08 1028.23 1028.56 1028.64 1028.68 1028.88 1029.52 1030.22 1031.60 1032.59 1033.66 1035.05 1035.51 1034.05 1034.52 1034.60 1034.40 1033.93 1033.38 1032.65 1031.85 1031.20 1030.30
1017.87 1018.32 1017.67 1017.30 1017.38 1018.55 1020.32 1021.06 1021.03 1020.83 1020.66 1020.64 1020.86 1021.46 1022.18 1023.09 1024.25 1025.60 1027.06 1028.14 1028.26 1028.36 1028.36 1028.60 1028.94 1029.59 1029.55 1030.76 1031.31 1031.67 1032.65 1034.06 1035.43 1036.84 1037.58 1037.07 1035.55 1034.97 1035.22 1034.77 1033.99 1033.37 1032.53 1031.43 1030.49
1018.19 1018.71 1017.91 1017.64 1018.86 1020.82 1021.57 1021.46 1021.21 1021.20 1021.00 1021.03 1021.18 1021.71 1022.61 1023.65 1024.85 1026.03 1027.14 1027.93 1028.41 1028.63 1028.89 1029.23 1029.82 1030.71 1031.25 1031.44 1031.75 1032.49 1033.61 1034.98 1036.62 1038.35 1039.04 1038.94 1036.02 1034.69 1035.14 1034.73 1034.17 1033.67 1033.03 1032.18 1031.10
1018.69 1018.78 1018.13 1018.06 1020.22 1022.00 1022.21 1022.18 1021.88 1021.60 1021.60 1021.56 1021.85 1022.28 1023.08 1024.25 1025.54 1026.48 1027.41 1028.22 1028.41 1028.71 1029.07 1029.38 1030.22 1031.07 1031.53 1031.96 1031.96 1032.78 1033.87 1035.24 1036.82 1038.26 1039.16 1039.48 1036.26 1034.97 1034.82 1034.75 1034.35 1033.80 1032.92 1032.01 1031.14
1019.09 1019.63 1019.51 1020.10 1020.79 1021.16 1022.24 1022.55 1022.46 1022.07 1021.98 1021.98 1022.40 1022.78 1023.76 1024.97 1025.73 1026.86 1027.75 1028.39 1028.61 1028.86 1029.08 1029.55 1030.45 1030.91 1031.60 1031.42 1031.98 1032.89 1033.84 1035.15 1036.51 1038.30 1038.92 1038.27 1036.54 1035.40 1035.67 1035.23 1034.63 1033.99 1033.34 1032.45 1031.34
1019.52 1020.30 1020.62 1021.34 1021.69 1021.54 1021.76 1022.53 1022.72 1022.61 1022.49 1022.53 1023.01 1023.50 1024.17 1025.56 1026.49 1027.37 1028.14 1028.69 1028.96 1029.06 1029.55 1030.09 1030.98 1031.28 1031.51 1031.57 1031.83 1032.33 1033.29 1034.66 1036.00 1036.83 1037.75 1036.80 1036.62 1035.91 1035.78 1035.53 1035.02 1034.40 1033.63 1032.46 1031.56
1019.38 1020.19 1021.10 1021.69 1021.67 1021.83 1022.37 1022.69 1022.77 1023.26 1023.27 1023.48 1023.74 1024.53 1025.04 1025.81 1026.64 1027.63 1028.17 1028.77 1029.03 1029.71 1030.23 1030.84 1031.69 1031.95 1032.16 1031.98 1032.04 1032.28 1032.70 1033.75 1034.91 1035.74 1036.35 1036.12 1035.77 1035.56 1035.53 1035.23 1034.91 1034.48 1033.66 1032.74 1031.82
1019.42 1019.54 1019.73 1022.16 1022.25 1022.32 1022.38 1022.56 1022.79 1023.21 1024.39 1024.51 1024.52 1025.32 1026.34 1027.01 1027.46 1027.92 1028.24 1028.68 1029.17 1030.06 1030.97 1031.77 1032.71 1033.35 1033.30 1032.67 1032.35 1032.32 1031.94 1032.90 1033.76 1034.49 1034.97 1035.54 1035.37 1035.60 1035.62 1035.31 1035.05 1034.66 1034.14 1033.22 1032.17
Thickness
5752 5753 5754 5753 5753 5753 5754 5755 5756 5756 5757 5759 5762 5764 5766 5769 5772 5770 5759 5764 5771 5779 5778 5777 5777 5774 5770 5755 5749 5740 5699 5681 5677 5669 5654 5651 5641 5634 5626 5617 5612 5603 5596 5593 5588
5752 5753 5753 5753 5754 5754 5754 5756 5756 5757 5758 5760 5761 5764 5766 5769 5767 5759 5772 5774 5779 5781 5778 5772 5766 5767 5748 5742 5732 5715 5686 5684 5676 5667 5651 5643 5636 5625 5613 5604 5596 5595 5590 5582 5576
5752 5753 5753 5753 5754 5754 5755 5756 5757 5758 5759 5761 5763 5766 5767 5769 5757 5755 5774 5778 5782 5785 5781 5776 5770 5758 5735 5730 5715 5702 5681 5674 5658 5656 5649 5634 5624 5617 5604 5590 5587 5581 5574 5567 5561
5752 5752 5753 5754 5754 5755 5755 5756 5758 5759 5761 5764 5766 5768 5769 5767 5732 5762 5772 5776 5781 5784 5778 5769 5759 5739 5720 5713 5707 5687 5673 5671 5656 5649 5641 5627 5617 5600 5593 5585 5579 5567 5561 5554 5547
5751 5752 5753 5755 5755 5755 5756 5757 5759 5760 5762 5766 5769 5771 5768 5746 5744 5767 5770 5775 5780 5779 5768 5762 5749 5733 5714 5707 5700 5678 5666 5658 5648 5638 5625 5618 5602 5592 5579 5575 5566 5559 5550 5541 5533
5751 5752 5754 5755 5755 5756 5757 5759 5760 5761 5764 5767 5769 5770 5760 5731 5762 5765 5768 5772 5770 5769 5761 5757 5747 5737 5713 5696 5689 5673 5659 5645 5636 5627 5617 5607 5593 5590 5576 5566 5555 5546 5536 5527 5518
5750 5752 5754 5755 5755 5757 5759 5761 5762 5763 5766 5768 5769 5768 5750 5741 5762 5764 5767 5767 5766 5765 5754 5753 5752 5736 5713 5688 5677 5664 5645 5634 5624 5621 5609 5606 5583 5573 5567 5554 5541 5531 5519 5512 5503
5750 5751 5754 5755 5756 5758 5760 5764 5766 5767 5769 5770 5770 5765 5742 5763 5763 5764 5766 5764 5763 5763 5756 5749 5747 5726 5702 5688 5674 5657 5646 5630 5624 5618 5608 5602 5567 5569 5553 5544 5529 5517 5504 5495 5488
5750 5752 5754 5755 5757 5760 5761 5766 5768 5769 5772 5771 5767 5759 5740 5764 5754 5759 5759 5752 5753 5755 5749 5747 5733 5698 5689 5674 5657 5648 5638 5636 5621 5616 5605 5594 5564 5557 5543 5532 5518 5503 5492 5485 5476
5748 5752 5755 5757 5759 5762 5765 5768 5769 5772 5770 5770 5763 5748 5746 5737 5749 5755 5757 5754 5747 5746 5736 5721 5698 5674 5659 5652 5642 5642 5636 5630 5620 5605 5588 5570 5553 5544 5535 5524 5509 5491 5481 5472 5466
5747 5752 5757 5759 5762 5765 5769 5766 5751 5743 5745 5733 5735 5735 5740 5748 5753 5749 5752 5750 5742 5723 5701 5693 5676 5651 5650 5647 5645 5644 5634 5626 5612 5595 5575 5561 5545 5538 5534 5514 5498 5489 5473 5461 5450
5747 5752 5757 5761 5763 5766 5766 5751 5749 5751 5728 5741 5741 5742 5746 5747 5736 5743 5750 5731 5716 5698 5698 5681 5660 5659 5657 5652 5650 5640 5625 5613 5599 5590 5572 5553 5546 5538 5523 5510 5490 5470 5456 5443 5440
5746 5751 5757 5762 5764 5763 5758 5754 5759 5758 5730 5736 5741 5739 5740 5742 5723 5722 5731 5720 5699 5688 5678 5668 5660 5661 5659 5643 5635 5632 5621 5607 5601 5578 5563 5549 5538 5525 5512 5496 5477 5458 5435 5433 5430
5744 5749 5756 5762 5757 5755 5753 5759 5760 5760 5711 5719 5731 5737 5739 5737 5720 5725 5723 5718 5699 5681 5675 5661 5660 5655 5649 5641 5630 5623 5624 5610 5599 5583 5566 5552 5538 5510 5488 5478 5467 5446 5438 5429 5427
5742 5747 5753 5761 5754 5750 5755 5759 5761 5754 5691 5725 5730 5750 5736 5725 5721 5718 5716 5713 5686 5675 5680 5659 5652 5644 5640 5636 5628 5623 5615 5610 5599 5583 5562 5548 5524 5495 5477 5469 5458 5441 5429 5422 5419
5740 5744 5750 5755 5754 5753 5756 5759 5754 5715 5696 5719 5727 5723 5722 5715 5710 5708 5699 5701 5690 5677 5667 5657 5656 5645 5636 5632 5627 5621 5618 5605 5585 5571 5564 5544 5524 5466 5462 5453 5445 5433 5418 5412 5419
5738 5743 5747 5752 5747 5753 5754 5747 5712 5697 5721 5714 5715 5717 5709 5702 5698 5690 5675 5662 5657 5670 5651 5653 5642 5635 5628 5622 5622 5600 5594 5589 5594 5569 5564 5526 5512 5460 5462 5446 5426 5414 5410 5410 5416
5735 5740 5744 5747 5750 5752 5746 5726 5710 5709 5711 5720 5717 5712 5703 5702 5686 5677 5671 5655 5652 5650 5636 5638 5642 5624 5621 5611 5601 5589 5572 5556 5579 5558 5538 5527 5510 5477 5466 5441 5418 5410 5407 5411 5416
5732 5734 5736 5742 5746 5747 5730 5702 5704 5708 5717 5712 5713 5704 5698 5699 5690 5672 5657 5651 5648 5643 5648 5634 5627 5625 5614 5604 5596 5591 5554 5554 5542 5522 5498 5508 5493 5484 5461 5445 5427 5416 5411 5414 5417
5722 5723 5728 5738 5742 5736 5712 5703 5703 5709 5713 5715 5707 5703 5694 5691 5687 5675 5662 5649 5645 5642 5636 5634 5624 5617 5612 5605 5588 5575 5561 5550 5512 5486 5512 5503 5483 5459 5453 5440 5426 5416 5415 5414 5417
5714 5711 5725 5734 5736 5717 5701 5695 5701 5707 5709 5709 5702 5696 5692 5688 5678 5666 5656 5643 5641 5639 5636 5629 5621 5615 5603 5574 5567 5554 5544 5519 5500 5486 5453 5445 5482 5455 5436 5426 5416 5409 5410 5417 5417
5703 5698 5720 5727 5705 5676 5688 5699 5705 5702 5705 5703 5700 5698 5690 5682 5672 5664 5660 5648 5638 5635 5634 5621 5596 5585 5586 5577 5568 5557 5539 5512 5479 5481 5439 5412 5452 5471 5438 5425 5416 5410 5408 5409 5414
5692 5697 5714 5719 5689 5676 5688 5691 5694 5698 5696 5699 5694 5694 5686 5674 5672 5659 5650 5641 5638 5634 5631 5622 5600 5587 5594 5577 5567 5557 5540 5509 5481 5453 5431 5413 5464 5462 5440 5427 5416 5410 5413 5414 5416
5684 5682 5693 5691 5688 5690 5685 5686 5687 5692 5693 5694 5690 5689 5681 5671 5660 5652 5647 5641 5637 5633 5631 5615 5593 5597 5583 5594 5564 5555 5542 5518 5493 5432 5422 5446 5462 5460 5437 5424 5414 5410 5409 5410 5415
5672 5676 5681 5680 5684 5687 5688 5683 5682 5685 5689 5690 5687 5687 5680 5660 5663 5653 5644 5638 5635 5634 5621 5610 5606 5600 5587 5579 5572 5566 5551 5521 5470 5492 5450 5480 5457 5449 5434 5421 5409 5403 5408 5412 5414
5669 5671 5661 5648 5677 5683 5674 5679 5681 5676 5681 5684 5683 5673 5676 5670 5671 5652 5644 5636 5640 5628 5618 5597 5592 5596 5588 5578 5570 5562 5554 5531 5513 5502 5477 5475 5463 5459 5437 5420 5410 5400 5409 5411 5413
5660 5668 5678 5646 5668 5673 5675 5677 5681 5676 5669 5665 5672 5665 5660 5656 5648 5637 5629 5622 5626 5622 5607 5596 5579 5565 5589 5573 5567 5560 5553 5543 5531 5513 5500 5480 5473 5452 5437 5429 5414 5402 5403 5406 5411